Tracking 20093 objects as of 16-Dec-2019
HD Live streaming from Space Station
objects crossing your sky now

FENGYUN 1C DEB

Track FENGYUN 1C DEB now!
10-day predictions


NORAD ID: 31756
Int'l Code: 1999-025CFF
Perigee: 776.5 km
Apogee: 866.8 km
Inclination: 99.4 °
Period: 101.2 minutes
Semi major axis: 7192 km
RCS: 0.0132 m2 (small)
Launch date: May 10, 1999
Source: People's Republic of China (PRC)
Launch site: Taiyaun Space Center, China (TSC)

Note: This is SATELLITE DEBRIS
aabbcc
Your satellite tracking list
Your tracking list is empty




NASA's NSSDC Master Catalog

Two Line Element Set (TLE):
1 31756U 99025CFF 19349.06035867  .00000494  00000-0  23580-3 0  9996
2 31756  99.3565 287.2446 0062779 320.7930  38.8707 14.23204638651984
Source of the keplerian elements: AFSPC